[[{"header":{"parameterUnit":"m.s-1","parameterCategory":1,"la1":30.2991,"la2":30.254,"lo1":-89.0895,"lo2":-89.0444,"dy":0.0017,"dx":0.0017,"nx":28,"ny":28,"refTime":"2025-05-16T21:00:00:Z","depth":0,"parameterNumber":2,"parameterNumberName":"U-component_of_WINDS"},"data":[0,0,0,0,0,0,0,0,0,0,0,0,0,0,0,0,0,0,0,0,0,0,0,0,0,0,0,0,0,0,0,0,0,0,0,0,0,0,0,0,0,0,0,0,0,0,0,0,0,0,0,0,0,0,0,0,0,0,1.3403,1.3404,0,1.3463,1.3463,1.3464,1.3449,1.3448,1.3447,1.3446,1.3507,1.3509,1.3512,0,0,0,0,0,0,0,0,0,0,0,0,0,1.3277,1.3279,1.3403,1.3404,1.3405,1.3462,1.3463,1.3464,1.3449,1.3448,1.3447,1.3445,1.3506,1.3509,1.3512,0,0,0,0,0,0,0,0,0,0,0,0,0,1.3334,1.328,1.3403,1.3404,1.3405,1.3462,1.3463,1.3464,1.345,1.3448,1.3446,1.3445,1.3505,1.3509,1.3513,1.3572,0,0,1.3525,1.3527,0,0,0,0,0,0,0,0,1.333,1.3338,1.3404,1.3404,1.3405,1.3447,1.3441,1.35,1.345,1.3433,1.3446,1.3444,1.3488,1.3493,1.3508,1.3575,1.3578,1.3525,1.3528,1.3529,1.3531,0,0,0,0,0,0,0,1.3326,1.3336,1.3427,1.3404,1.3406,1.3402,1.3408,1.3452,1.3469,1.3434,1.3433,1.344,1.3488,1.3504,1.351,1.3579,1.3525,1.3529,1.3531,1.3533,1.3696,1.3697,0,0,0,0,0,0,1.3322,1.3332,1.3425,1.3429,1.3363,1.3405,1.3412,1.3435,1.3469,1.3472,1.3442,1.3439,1.3498,1.3505,1.3512,1.3582,1.3529,1.3533,1.3536,1.3694,1.3696,1.3698,0,0,0,0,0,0,1.3319,1.333,1.3422,1.338,1.3392,1.3409,1.3435,1.3437,1.3453,1.3475,1.3478,1.3455,1.3497,1.3506,1.3557,1.3584,1.3535,1.3539,1.3691,1.3694,1.3697,1.3725,0,0,0,0,0,0,1.3316,1.3329,1.3352,1.3381,1.3394,1.3467,1.3437,1.344,1.346,1.3458,1.3488,1.3491,1.3497,1.3551,1.3561,1.3589,1.3542,1.3689,1.3693,1.3696,1.3722,1.3729,1.3735,0,0,0,0,0,1.3311,1.3358,1.3354,1.3365,1.3423,1.3469,1.3476,1.3481,1.3463,1.3486,1.3499,1.349,1.358,1.3556,1.3567,1.3597,1.3687,1.3692,1.3696,1.3719,1.3727,1.3734,0,0,0,0,0,0,1.3333,1.3362,1.3357,1.3415,1.344,1.3466,1.3495,1.349,1.352,1.3516,1.3521,1.3528,1.358,1.3594,1.3567,1.3656,1.3631,1.3638,1.3645,1.3653,1.3659,1.3654,1.3545,0,0,0,0,0,1.3345,1.3379,1.3403,1.3452,1.3464,1.3478,1.3498,1.3499,1.3525,1.3535,1.3552,1.3577,1.361,1.3633,1.3665,1.3724,1.373,1.375,1.3756,1.3761,1.3767,1.3798,1.3807,1.3712,1.3712,1.3712,0,0,1.3369,1.3389,1.3411,1.3456,1.3475,1.3511,1.3486,1.3525,1.3551,1.3541,1.3589,1.3603,1.3631,1.3686,1.3711,1.3699,1.3794,1.3767,1.3771,1.3773,1.3803,1.3812,1.382,1.3715,1.3714,1.3714,0,0,1.3431,1.345,1.3492,1.3511,1.354,1.3549,1.3559,1.3586,1.3595,1.3644,1.3636,1.3667,1.3725,1.3745,1.3763,1.3831,1.3824,1.3842,1.3874,1.3905,1.3912,1.3919,1.3942,1.395,1.3847,1.3847,1.3847,0,1.3457,1.351,1.3514,1.3553,1.3573,1.3565,1.3607,1.3626,1.3664,1.3678,1.3664,1.3736,1.3754,1.3813,1.383,1.3845,1.3856,1.3838,1.3911,1.3917,1.3923,1.3946,1.3954,1.3849,1.3849,1.3849,1.3849,0,1.354,1.3577,1.3608,1.3644,1.3668,1.3708,1.3718,1.3741,1.3741,1.375,1.38,1.3822,1.3857,1.3872,1.3872,1.393,1.3922,1.3909,1.3884,1.3934,1.3955,1.3964,1.3852,1.3851,1.3851,1.385,0,0,1.3618,1.3656,1.3667,1.3682,1.3713,1.3742,1.3781,1.3816,1.3835,1.3862,1.3894,1.3943,1.3932,1.3952,1.3954,1.3981,1.4032,1.3965,1.3965,1.3975,1.4096,1.4104,1.4114,1.4027,1.4029,1.403,1.4093,0,1.3681,1.3751,1.3756,1.3819,1.3852,1.3845,1.3879,1.3902,1.3912,1.3941,1.3953,1.3987,1.3969,1.3981,1.4007,1.402,1.4056,1.4016,1.4057,1.4058,1.4049,1.4125,1.4135,1.4193,1.4101,1.4103,1.4104,0,1.3765,1.3793,1.386,1.3885,1.3899,1.393,1.3961,1.399,1.4015,1.402,1.4042,1.404,1.408,1.4054,1.4109,1.4082,1.4099,1.4108,1.411,1.4113,1.4084,1.413,1.4212,1.422,1.4117,1.4116,1.4115,0,1.3813,1.3868,1.3914,1.3928,1.3959,1.3981,1.3995,1.4018,1.4038,1.4066,1.4079,1.4111,1.4128,1.4153,1.4159,1.414,1.4214,1.4188,1.4219,1.4218,1.4234,1.4233,1.4319,1.4247,1.4247,1.4246,1.4246,0,1.3883,1.3924,1.3936,1.3965,1.4009,1.4014,1.4058,1.4071,1.4091,1.4122,1.4118,1.4146,1.4154,1.4183,1.4189,1.4232,1.4241,1.4246,1.4246,1.4245,1.4245,1.4256,1.4252,1.4249,1.4248,1.4248,1.4247,0,1.3944,1.3954,1.4004,1.4029,1.4036,1.4068,1.4089,1.4116,1.4125,1.4164,1.4173,1.4188,1.4222,1.4231,1.4273,1.4277,1.4328,1.4326,1.4319,1.4319,1.4348,1.4345,1.4444,1.4457,1.4377,1.4378,1.4379,0,1.3988,1.4018,1.4047,1.4066,1.4081,1.4113,1.4134,1.414,1.4161,1.4191,1.4214,1.4248,1.4276,1.4331,1.4345,1.4377,1.4374,1.4407,1.4379,1.4377,1.4374,1.4371,1.4374,1.4412,1.4413,1.4414,1.4414,0,1.4063,1.4066,1.4096,1.4127,1.4152,1.4177,1.42,1.4217,1.4226,1.425,1.4285,1.4306,1.4348,1.4382,1.4414,1.4427,1.4422,1.4423,1.4431,1.443,1.4425,1.4427,1.4333,1.442,1.442,1.4419,1.4419,1.4419,1.4116,1.4142,1.4166,1.4199,1.4217,1.424,1.4266,1.4278,1.4308,1.4342,1.4344,1.4382,1.4405,1.4447,1.4462,1.4492,1.4482,1.4494,1.4497,1.45,1.4502,1.4421,1.4498,1.4497,1.4497,1.4497,1.4497,0,1.419,1.4205,1.4235,1.4268,1.4294,1.4287,1.4312,1.4334,1.4368,1.439,1.4417,1.4456,1.4489,1.4505,1.4537,1.4557,1.4556,1.4565,1.4563,1.4566,1.451,1.4498,1.4566,1.4566,1.4566,1.4566,1.4566,1.4566,1.4232,1.4276,1.4282,1.4335,1.4349,1.4386,1.4401,1.4421,1.4439,1.4484,1.451,1.4521,1.454,1.4573,1.4602,1.4606,1.4618,1.4629,1.4631,1.4578,1.4571,1.4564,1.4553,1.4631,1.4632,1.4685,1.4686,1.4686]},{"header":{"parameterUnit":"m.s-1","parameterCategory":1,"la1":30.2991,"la2":30.254,"lo1":-89.0895,"lo2":-89.0444,"dy":0.0017,"dx":0.0017,"nx":28,"ny":28,"refTime":"2025-05-16T21:00:00:Z","depth":0,"parameterNumber":3,"parameterNumberName":"V-component_of_WINDS"},"data":[0,0,0,0,0,0,0,0,0,0,0,0,0,0,0,0,0,0,0,0,0,0,0,0,0,0,0,0,0,0,0,0,0,0,0,0,0,0,0,0,0,0,0,0,0,0,0,0,0,0,0,0,0,0,0,0,0,0,4.225,4.225,0,4.2237,4.2237,4.2237,4.2187,4.2186,4.2185,4.2184,4.2171,4.2172,4.2173,0,0,0,0,0,0,0,0,0,0,0,0,0,4.2233,4.2233,4.225,4.225,4.225,4.2237,4.2237,4.2237,4.2187,4.2186,4.2185,4.2183,4.2171,4.2172,4.2173,0,0,0,0,0,0,0,0,0,0,0,0,0,4.2232,4.2234,4.225,4.2224,4.2221,4.2237,4.2237,4.2237,4.2188,4.2186,4.2184,4.2183,4.2171,4.2172,4.2173,4.2214,0,0,4.2176,4.2177,0,0,0,0,0,0,0,0,4.2232,4.2233,4.2228,4.2226,4.2223,4.2212,4.2226,4.2229,4.2188,4.22,4.2184,4.2182,4.2186,4.2186,4.2187,4.2214,4.2213,4.2176,4.2177,4.2178,4.2178,0,0,0,0,0,0,0,4.2232,4.2233,4.2245,4.2228,4.2225,4.2213,4.2211,4.2227,4.2203,4.2199,4.2196,4.2195,4.2185,4.2186,4.2187,4.2213,4.2176,4.2177,4.2178,4.2179,4.2271,4.2273,0,0,0,0,0,0,4.2236,4.2234,4.2246,4.2245,4.2223,4.2214,4.2212,4.2217,4.2203,4.2199,4.2196,4.2192,4.2185,4.2186,4.2186,4.2233,4.2178,4.2179,4.2179,4.227,4.2272,4.2274,0,0,0,0,0,0,4.2236,4.2238,4.2246,4.2238,4.2238,4.2216,4.2223,4.2218,4.222,4.2201,4.2196,4.2202,4.2184,4.2185,4.2207,4.2232,4.2179,4.218,4.2268,4.227,4.2273,4.2327,0,0,0,0,0,0,4.2236,4.2238,4.2253,4.2239,4.2239,4.2268,4.2224,4.2219,4.2222,4.2217,4.2205,4.2202,4.2183,4.2206,4.2208,4.2232,4.2181,4.2265,4.2269,4.2272,4.2323,4.2331,4.2339,0,0,0,0,0,4.2235,4.227,4.2254,4.2256,4.2258,4.2269,4.2269,4.2247,4.2224,4.2239,4.2227,4.2202,4.2229,4.2209,4.2211,4.2236,4.2264,4.2268,4.2272,4.232,4.233,4.2338,0,0,0,0,0,0,4.2288,4.2267,4.225,4.2281,4.2277,4.2261,4.2279,4.2258,4.2261,4.2256,4.2228,4.2226,4.2253,4.2247,4.2225,4.2274,4.2242,4.2247,4.2278,4.2287,4.2295,4.2296,4.2182,0,0,0,0,0,4.2303,4.2314,4.2295,4.2324,4.2323,4.2302,4.2306,4.2289,4.2284,4.2282,4.2271,4.2268,4.2275,4.2281,4.2287,4.2322,4.2319,4.234,4.2348,4.2354,4.2359,4.2376,4.2386,4.2287,4.2287,4.2287,0,0,4.2335,4.2325,4.2333,4.2334,4.2329,4.2341,4.2301,4.2315,4.2324,4.2284,4.2305,4.2297,4.2291,4.232,4.2333,4.2316,4.2385,4.2359,4.2365,4.2366,4.2382,4.2391,4.2399,4.229,4.2289,4.2289,0,0,4.2398,4.2392,4.2414,4.241,4.2403,4.2388,4.2394,4.2381,4.2374,4.2394,4.2365,4.2374,4.2388,4.2385,4.2385,4.2447,4.2424,4.245,4.249,4.2508,4.2515,4.2522,4.2544,4.2552,4.2454,4.2454,4.2454,0,4.2438,4.2455,4.2429,4.2445,4.2447,4.2411,4.2434,4.2431,4.2427,4.2428,4.241,4.2425,4.2419,4.2447,4.2462,4.2463,4.2469,4.2451,4.2516,4.2523,4.2529,4.2549,4.2557,4.2457,4.2457,4.2457,4.2456,0,4.2504,4.2516,4.2535,4.2531,4.2535,4.2554,4.2532,4.2538,4.2521,4.2508,4.2529,4.252,4.2523,4.2529,4.2512,4.2554,4.2544,4.2521,4.2488,4.2542,4.256,4.2568,4.2462,4.2461,4.246,4.2459,0,0,4.2601,4.2582,4.2589,4.2587,4.2576,4.2585,4.2602,4.2605,4.2611,4.2609,4.2623,4.2635,4.2614,4.2615,4.2597,4.2613,4.2662,4.2588,4.2587,4.2602,4.2707,4.2724,4.2734,4.2646,4.2648,4.2649,4.2707,0,4.2661,4.269,4.2667,4.27,4.2711,4.2677,4.2692,4.2687,4.2676,4.2684,4.2671,4.268,4.2651,4.2651,4.2665,4.2653,4.2682,4.2648,4.266,4.266,4.2662,4.2743,4.2761,4.2817,4.2715,4.2716,4.2717,0,4.2735,4.2735,4.277,4.2756,4.2759,4.2774,4.2774,4.2781,4.2775,4.2766,4.2766,4.2744,4.2761,4.2728,4.2751,4.2728,4.2731,4.2726,4.2727,4.2728,4.2692,4.2746,4.2834,4.2843,4.2728,4.2727,4.2726,0,4.2802,4.2811,4.2832,4.2831,4.2816,4.2827,4.2821,4.2813,4.2816,4.2816,4.2818,4.282,4.2822,4.2824,4.2804,4.2782,4.2829,4.2795,4.2822,4.2822,4.2833,4.2833,4.2924,4.2836,4.2836,4.2835,4.2835,0,4.2871,4.2893,4.2862,4.2875,4.2899,4.2873,4.2897,4.2888,4.2881,4.2891,4.2862,4.2873,4.2846,4.2854,4.2838,4.2859,4.286,4.2853,4.2848,4.2855,4.2856,4.2857,4.2853,4.2838,4.2837,4.2837,4.2836,0,4.295,4.293,4.2951,4.2934,4.293,4.2949,4.2935,4.2946,4.2933,4.2947,4.2949,4.2928,4.2936,4.2915,4.292,4.291,4.294,4.2929,4.2942,4.2939,4.2967,4.2964,4.3061,4.3072,4.2978,4.2978,4.2979,0,4.2995,4.3011,4.2996,4.3001,4.2997,4.3005,4.3008,4.2982,4.2986,4.298,4.2992,4.2998,4.3001,4.3015,4.3,4.3004,4.2993,4.3027,4.2994,4.3,4.2994,4.2993,4.2994,4.3034,4.3035,4.3036,4.3037,0,4.3078,4.3067,4.3072,4.3073,4.3076,4.3076,4.3074,4.308,4.3053,4.3059,4.3066,4.3068,4.3073,4.3079,4.3079,4.3073,4.3051,4.3047,4.3054,4.3061,4.3068,4.3064,4.296,4.3045,4.3044,4.3044,4.3043,4.3043,4.3142,4.3154,4.3145,4.3151,4.3146,4.3145,4.3155,4.3142,4.3148,4.3149,4.3134,4.3145,4.3138,4.3136,4.3132,4.314,4.3125,4.3134,4.3136,4.3139,4.3144,4.3066,4.314,4.314,4.314,4.3139,4.3139,0,4.3223,4.3215,4.3221,4.3218,4.3223,4.32,4.3197,4.3202,4.3212,4.3207,4.321,4.3218,4.3224,4.3209,4.3212,4.3222,4.3211,4.3223,4.3222,4.3221,4.3157,4.3151,4.3232,4.3232,4.3232,4.3231,4.3231,4.3231,4.3266,4.3286,4.3274,4.3291,4.3283,4.3293,4.3292,4.3291,4.3286,4.3297,4.3301,4.3291,4.3282,4.3285,4.3289,4.3284,4.3287,4.3302,4.3295,4.3235,4.3226,4.3217,4.3212,4.3303,4.3303,4.3358,4.3358,4.3359]}]]